Location: Ackerson Creek
(37.8210°N, 119.8757°W)
Time: 16:26:23
(UTC+00:00)

Cosmos 1151 Rocket - Pass Details

Date: 13 April 2024
Orbit: 588 x 611 km, 82.5° (Epoch: 23 May)

Event Time Altitude Azimuth Distance (km) Brightness Sun altitude
Exits shadow 12:10:19 21° 276° (W) 1,346 4.3 -15.0°
Maximum altitude 12:10:44 22° 285° (WNW) 1,335 4.3 -15.0°
Drops below altitude 10° 12:14:05 10° 336° (NNW) 1,951 5.6 -14.3°
Sets 12:16:45 0° 352° (N) 2,864 6.7 -13.9°
